Trinidad, CO

11:33 AM MST on November 21, 2017 (GMT -0700)
Stokes

Weather History for KTAD - June, 2014

Change the Weather History Date:

Thursday, June 12, 2014

  Actual Average Record
Temperature  
Mean Temperature 64 °F 67 °F  
Max Temperature 81 °F 83 °F 97 °F (1981)
Min Temperature 47 °F 52 °F 40 °F (1969)
Degree Days  
Heating Degree Days 1 2  
Month to date heating degree days 12 29  
Since 1 June heating degree days 12 29  
Since 1 July heating degree days 5344 5524  
Cooling Degree Days 0 4  
Month to date cooling degree days 53 36  
Year to date cooling degree days 87 64  
Since 1 June cooling degree days 53 36  
Growing Degree Days 12 (Base 50)    
Moisture  
Dew Point 45 °F    
Average Humidity 58    
Maximum Humidity 86    
Minimum Humidity 29    
Precipitation  
Precipitation 0.00 in 0.04 in 0.92 in (1999)
Month to date precipitation 0.28 0.60  
Year to date precipitation 2.74 5.12  
Sea Level Pressure  
Sea Level Pressure 30.04 in    
Wind  
Wind Speed 8 mph (SSE)    
Max Wind Speed 29 mph    
Max Gust Speed 34 mph    
Visibility 10 miles    
Events Thunderstorm    
T = Trace of Precipitation, MM = Missing Value Source: NWS Daily Summary

Daily Weather History Graph

Daily Weather History Graph

Search for Another Location

Airport or City:

Trip Planner

Search our weather history database for the weather conditions in past years. The results will help you decide how hot, cold, wet, or windy it might be!

Date:

Astronomy

Jun. 12, 2014 Rise Set
Actual Time 5:36 AM MDT 8:18 PM MDT
Civil Twilight 5:05 AM MDT 8:49 PM MDT
Nautical Twilight 4:26 AM MDT 9:27 PM MDT
Astronomical Twilight 3:43 AM MDT 10:11 PM MDT
Moon 7:54 PM MDT (6/12) 5:17 AM MDT (6/12)
Length of Visible Light 15h 43m
Length of Day
14h 41m
Full, 100% of the Moon is Illuminated
Jun 12
Full
Jun 12
Full
Jun 19
Last Quarter
Jun 27
New
Jul 5
First Quarter

Hourly Weather History & Observations

Time (MDT) Temp. Dew Point Humidity Pressure Visibility Wind Dir Wind Speed Gust Speed Precip Events Conditions
12:54 AM 51.1 °F 45.0 °F 80% 29.90 in 10.0 mi WNW 9.2 mph - N/A   Clear
1:54 AM 50.0 °F 44.1 °F 80% 29.94 in 10.0 mi West 9.2 mph - N/A   Clear
2:54 AM 52.0 °F 45.0 °F 77% 29.96 in 10.0 mi NE 8.1 mph - N/A   Clear
3:54 AM 46.9 °F 43.0 °F 86% 29.96 in 10.0 mi Calm Calm - N/A   Clear
4:49 AM 48.2 °F 44.6 °F 87% 30.21 in 10.0 mi Calm Calm - N/A   Mostly Cloudy
4:54 AM 50.0 °F 45.0 °F 83% 30.01 in 10.0 mi Calm Calm - N/A   Mostly Cloudy
5:54 AM 52.0 °F 46.9 °F 83% 30.03 in 10.0 mi NW 3.5 mph - N/A   Overcast
6:54 AM 53.1 °F 48.0 °F 83% 30.05 in 10.0 mi NW 3.5 mph - N/A   Overcast
8:54 AM 55.9 °F 48.0 °F 75% 30.12 in 10.0 mi ENE 3.5 mph - N/A   Overcast
9:10 AM 57.0 °F 48.0 °F 72% 30.28 in 10.0 mi NE 5.8 mph - N/A   Overcast
9:54 AM 57.0 °F 46.9 °F 69% 30.13 in 10.0 mi East 4.6 mph - N/A   Overcast
10:39 AM 57.9 °F 46.9 °F 67% 30.27 in 10.0 mi East 4.6 mph - N/A   Overcast
10:54 AM 59.0 °F 46.9 °F 64% 30.11 in 10.0 mi Variable 3.5 mph - N/A   Overcast
11:54 AM 64.0 °F 45.0 °F 50% 30.09 in 10.0 mi Variable 4.6 mph - N/A   Clear
12:54 PM 69.1 °F 46.0 °F 44% 30.06 in 10.0 mi South 9.2 mph - N/A   Clear
1:54 PM 71.1 °F 46.0 °F 41% 30.02 in 10.0 mi North - - N/A   Clear
2:54 PM 73.9 °F 45.0 °F 35% 29.97 in 10.0 mi East 11.5 mph 21.9 mph N/A   Clear
3:54 PM 75.9 °F 44.1 °F 32% 29.95 in 10.0 mi ESE 11.5 mph 23.0 mph N/A   Clear
4:54 PM 77.0 °F 43.0 °F 30% 29.92 in 10.0 mi East 20.7 mph 25.3 mph N/A   Partly Cloudy
5:05 PM 78.1 °F 43.0 °F 29% 30.12 in 10.0 mi ESE 21.9 mph 31.1 mph N/A Thunderstorm Scattered Clouds
5:17 PM 78.1 °F 45.0 °F 31% 30.12 in 10.0 mi SSW 24.2 mph 34.5 mph N/A Thunderstorm Scattered Clouds
5:21 PM 77.0 °F 45.0 °F 32% 30.11 in 10.0 mi South 24.2 mph 34.5 mph N/A   Scattered Clouds
5:33 PM 75.0 °F 46.0 °F 36% 30.11 in 10.0 mi South 17.3 mph - N/A Thunderstorm Scattered Clouds
5:54 PM 73.0 °F 45.0 °F 37% 29.92 in 10.0 mi SSE 13.8 mph - N/A   Clear
6:54 PM 73.0 °F 45.0 °F 37% 29.93 in 10.0 mi SE 12.7 mph - N/A   Clear
7:54 PM 71.1 °F 46.9 °F 42% 29.93 in 10.0 mi South 5.8 mph - N/A   Clear
8:54 PM 69.1 °F 43.0 °F 39% 29.96 in 10.0 mi SSE 3.5 mph - N/A   Clear
9:54 PM 64.9 °F 46.0 °F 50% 29.99 in 10.0 mi WSW 9.2 mph - N/A   Clear
10:54 PM 63.0 °F 46.0 °F 54% 30.00 in 10.0 mi WSW 13.8 mph - N/A   Clear
11:54 PM 60.1 °F 46.0 °F 60% 29.99 in 10.0 mi WSW 10.4 mph - N/A   Clear